WetterOnline ( https://www.wetteronline.de )

Wetter aktuell Ueckermünde

Aktuelles Wetter: Ueckermünde (7m)

6-stündlich | Neueste Meldungen
Ortszeit Temperatur Wetter
So, 26.05. 2:00 15.6° C bedeckt
Sa, 25.05. 20:00 19.8° C bewölkt
Sa, 25.05. 14:00 23.3° C leicht bewölkt
Sa, 25.05. 8:00 16.1° C bedeckt
Sa, 25.05. 2:00 15.8° C bewölkt
Fr, 24.05. 20:00 17.1° C leicht bewölkt
Fr, 24.05. 14:00 19.2° C leicht bewölkt
Fr, 24.05. 8:00 17.0° C bedeckt
Ortszeit Temperatur Wetter
So, 26.05. 2:00 15.6° C bedeckt
So, 26.05. 1:50 15.6° C bedeckt
So, 26.05. 1:40 15.4° C bedeckt
So, 26.05. 1:30 16.7° C bedeckt
So, 26.05. 1:20 16.7° C bedeckt
So, 26.05. 1:10 16.3° C bedeckt
So, 26.05. 1:00 16.5° C bedeckt
So, 26.05. 0:30 17.5° C bewölkt
So, 26.05. 0:00 18.4° C bewölkt
Sa, 25.05. 23:30 19.0° C bewölkt
Sa, 25.05. 23:00 19.3° C wolkig
Ortszeit Relative Feuchte Sichtweite
So, 26.05. 2:00 94% 50 km
Sa, 25.05. 20:00 85% 35 km
Sa, 25.05. 14:00 65% 40 km
Sa, 25.05. 8:00 89% 15 km
Sa, 25.05. 2:00 84% 45 km
Fr, 24.05. 20:00 71% 60 km
Fr, 24.05. 14:00 72% 30 km
Fr, 24.05. 8:00 95% 8 km
Ortszeit Relative Feuchte Sichtweite
So, 26.05. 2:00 94% 50 km
So, 26.05. 1:50 94% -
So, 26.05. 1:40 92% -
So, 26.05. 1:30 90% 65 km
So, 26.05. 1:20 90% -
So, 26.05. 1:10 89% -
So, 26.05. 1:00 85% 65 km
So, 26.05. 0:30 78% 65 km
So, 26.05. 0:00 76% >70 km
Sa, 25.05. 23:30 76% >70 km
Sa, 25.05. 23:00 77% 60 km
Ortszeit Niederschlagsmenge Niederschlagsart
So, 26.05. 2:00 0.0 l/m2 in 6 Std. -
Sa, 25.05. 20:00 0.1 l/m2 in 12 Std. Regen
Sa, 25.05. 14:00 0.0 l/m2 in 6 Std. -
Sa, 25.05. 8:00 0.0 l/m2 in 12 Std. -
Sa, 25.05. 2:00 0.0 l/m2 in 6 Std. -
Fr, 24.05. 20:00 0.1 l/m2 in 12 Std. -
Fr, 24.05. 14:00 0.1 l/m2 in 6 Std. Regen
Fr, 24.05. 8:00 0.1 l/m2 in 12 Std. Sprühregen
Ortszeit Niederschlagsmenge Niederschlagsart
So, 26.05. 2:00 0.0 l/m2 in 1 Std. -
So, 26.05. 1:50 keine Meldung -
So, 26.05. 1:40 keine Meldung -
So, 26.05. 1:30 0.0 l/m2 in 30 Min -
So, 26.05. 1:20 keine Meldung -
So, 26.05. 1:10 keine Meldung -
So, 26.05. 1:00 0.0 l/m2 in 1 Std. -
So, 26.05. 0:30 0.0 l/m2 in 30 Min -
So, 26.05. 0:00 0.0 l/m2 in 1 Std. -
Sa, 25.05. 23:30 0.0 l/m2 in 30 Min -
Sa, 25.05. 23:00 0.0 l/m2 in 1 Std. -
Ortszeit Stärke Spitze Richtung
km/h Bft. km/h Grad Sektor
So, 26.05. 2:00 4 1 32 50° NO
Sa, 25.05. 20:00 7 2 29 40° NO
Sa, 25.05. 14:00 14 3 25 180° S
Sa, 25.05. 8:00 4 1 22 130° SO
Sa, 25.05. 2:00 11 2 32 60° NO
Fr, 24.05. 20:00 15 3 31 50° NO
Fr, 24.05. 14:00 17 3 28 30° NO
Fr, 24.05. 8:00 4 1 11 240° SW
Ortszeit Stärke Spitze Richtung
km/h Bft. km/h Grad Sektor
So, 26.05. 2:00 4 1 7 50° NO
So, 26.05. 1:50 4 1 - 50° NO
So, 26.05. 1:40 4 1 - 30° NO
So, 26.05. 1:30 4 1 7 50° NO
So, 26.05. 1:20 4 1 - 50° NO
So, 26.05. 1:10 4 1 - 40° NO
So, 26.05. 1:00 4 1 7 50° NO
So, 26.05. 0:30 4 1 7 110° O
So, 26.05. 0:00 6 1 19 110° O
Sa, 25.05. 23:30 9 2 19 90° O
Sa, 25.05. 23:00 9 2 24 90° O
Ortszeit Untergrenze Bedeckung Gattung
total tief tief mittel hoch
So, 26.05. 2:00 4500 m 8/8 8/8 - - -
Sa, 25.05. 20:00 3600 m 8/8 7/8 - - -
Sa, 25.05. 14:00 870 m 4/8 3/8 - - -
Sa, 25.05. 8:00 210 m 8/8 8/8 - - -
Sa, 25.05. 2:00 2700 m 8/8 4/8 - - -
Fr, 24.05. 20:00 9000 m 4/8 0/8 - - -
Fr, 24.05. 14:00 8100 m 8/8 0/8 - - -
Fr, 24.05. 8:00 240 m 8/8 8/8 - - -
Ortszeit Bedeckungsgrad in Achtel und Wolkenuntergrenze
So, 26.05. 2:00 7(4500m) 8(5100m)
So, 26.05. 1:50 7(4500m) 8(5100m)
So, 26.05. 1:40 8
So, 26.05. 1:30 3(4200m) 8(5100m)
So, 26.05. 1:20 3(4200m) 8(5100m)
So, 26.05. 1:10 8
So, 26.05. 1:00 1(3300m) 8(5400m) 8(6300m)
So, 26.05. 0:30 7(3300m) 8(7200m) 8(8700m)
So, 26.05. 0:00 5(3000m) 8(7200m) 8(7800m)
Sa, 25.05. 23:30 1(3000m) 7(6300m) 8(7500m)
Sa, 25.05. 23:00 1(2100m) 3(6300m) 8(8100m)
Ortszeit Luftdruck NN (hPa) Tendenz (hPa in 3 Std.)
So, 26.05. 2:00 1018 - 0,1
Sa, 25.05. 20:00 1018 + 0,3
Sa, 25.05. 14:00 1018 + 0,2
Sa, 25.05. 8:00 1017 0,0
Sa, 25.05. 2:00 1018 - 0,7
Fr, 24.05. 20:00 1020 - 0,9
Fr, 24.05. 14:00 1021 - 0,1
Fr, 24.05. 8:00 1020 + 0,9
Ortszeit Luftdruck NN (hPa) Tendenz (hPa in 3 Std.)
So, 26.05. 2:00 1018 - 0,1
So, 26.05. 1:50 1018 keine Meldung
So, 26.05. 1:40 1018 keine Meldung
So, 26.05. 1:30 1019 - 0,2
So, 26.05. 1:20 1019 keine Meldung
So, 26.05. 1:10 1019 keine Meldung
So, 26.05. 1:00 1019 - 0,2
So, 26.05. 0:30 1019 + 0,1
So, 26.05. 0:00 1019 + 0,5
Sa, 25.05. 23:30 1019 + 0,4
Sa, 25.05. 23:00 1019 + 0,6
Ortszeit Schneehöhe (cm)
So, 26.05. 2:00 0
Sa, 25.05. 20:00 0
Sa, 25.05. 14:00 0
Sa, 25.05. 8:00 0
Sa, 25.05. 2:00 0
Fr, 24.05. 20:00 0
Fr, 24.05. 14:00 0
Fr, 24.05. 8:00 0
Ortszeit Schneehöhe (cm)
So, 26.05. 2:00 0
So, 26.05. 1:50 0
So, 26.05. 1:40 -
So, 26.05. 1:30 0
So, 26.05. 1:20 0
So, 26.05. 1:10 -
So, 26.05. 1:00 0
So, 26.05. 0:30 0
So, 26.05. 0:00 0
Sa, 25.05. 23:30 0
Sa, 25.05. 23:00 0
Link zu dieser Seite / Seite empfehlen

Das Wetter in ...